W7PJH Weather Reports


time (UTC)temp
F
wind
direction
speed
knots
gust
knots
rain 1hr
in
rain 24hr
in
rain mn
in
humidity
%
barometer
mb
20260506033553 67 267 1.7 3.5 0.00 0.04 0.04 36 1013.8
20260506032524 68 269 1.7 6.1 0.00 0.04 0.04 34 1013.6
20260506031534 68 302 1.7 6.1 0.00 0.04 0.04 33 1013.5
20260506030524 68 280 2.6 7.8 0.00 0.04 0.04 33 1013.4
20260506025532 68 278 2.6 7.8 0.00 0.04 0.04 32 1013.2
20260506024525 69 292 3.5 7.8 0.00 0.04 0.04 33 1013.1
20260506023554 69 265 3.5 7.0 0.00 0.04 0.04 33 1013.0
20260506022524 69 277 4.3 8.7 0.00 0.04 0.04 33 1012.8
20260506021533 69 285 5.2 13.0 0.00 0.04 0.04 32 1012.6
20260506020557 70 294 4.3 8.7 0.00 0.04 0.04 33 1012.3
20260506015532 70 276 5.2 10.4 0.00 0.04 0.04 33 1012.2
20260506014524 71 278 6.1 12.2 0.00 0.04 0.04 32 1012.2
20260506013532 72 279 7.0 13.0 0.00 0.04 0.04 31 1012.1
20260506012526 73 290 5.2 13.0 0.00 0.04 0.04 29 1012.0
20260506011532 74 281 4.3 11.3 0.00 0.04 0.04 27 1011.9
20260506010524 74 278 8.7 17.4 0.00 0.04 0.04 27 1011.8
20260506005532 75 267 5.2 10.4 0.00 0.05 0.04 26 1011.7
20260506004524 75 262 5.2 11.3 0.00 0.06 0.04 27 1011.6
20260506003532 75 275 7.0 15.6 0.00 0.06 0.04 27 1011.5
20260506002604 76 254 5.2 11.3 0.00 0.06 0.04 27 1011.5
20260506001548 77 315 5.2 12.2 0.00 0.06 0.04 27 1011.5
20260506000700 76 255 2.6 3.5 0.00 0.06 0.04 28 1011.3
20260505235533 75 242 6.1 13.0 0.00 0.06 0.04 28 1011.3
20260505234545 75 281 5.2 11.3 0.00 0.06 0.04 28 1011.3
20260505233740 76 252 4.3 6.1 0.00 0.06 0.04 28 1011.2
20260505232526 76 247 7.0 12.2 0.00 0.06 0.04 26 1011.4
20260505231533 76 228 7.0 13.0 0.00 0.06 0.04 26 1011.3
20260505230545 76 218 7.0 17.4 0.00 0.06 0.04 26 1011.3
20260505225813 76 204 7.8 15.6 0.00 0.06 0.04 27 1011.4
20260505225013 76 229 5.2 8.7 0.00 0.06 0.04 28 1011.5
20260505223845 77 249 7.8 10.4 0.00 0.06 0.04 27 1011.5
20260505222636 76 273 6.1 15.6 0.00 0.06 0.04 27 1011.6
20260505221532 76 264 7.8 21.7 0.00 0.06 0.04 27 1011.7
20260505220525 77 264 7.0 13.0 0.00 0.06 0.04 28 1011.7
20260505215609 76 274 7.0 12.2 0.00 0.06 0.04 29 1011.9
20260505214524 76 285 8.7 15.6 0.00 0.06 0.04 30 1011.9
20260505213552 76 293 7.8 16.5 0.00 0.06 0.04 30 1012.0
20260505212526 76 278 8.7 16.5 0.00 0.06 0.04 31 1012.1
20260505211532 76 283 7.8 16.5 0.00 0.06 0.04 34 1012.1
20260505210612 73 289 8.7 18.2 0.00 0.06 0.04 35 1012.2
20260505205900 74 257 6.1 13.0 0.00 0.06 0.04 36 1012.3
20260505204524 75 282 6.1 13.0 0.00 0.06 0.04 37 1012.3
20260505203533 72 279 6.1 14.8 0.00 0.06 0.04 39 1012.3
20260505202524 72 280 7.0 17.4 0.00 0.06 0.04 39 1012.5
20260505201533 71 260 5.2 12.2 0.00 0.06 0.04 45 1012.6
20260505200524 71 13 4.3 6.1 0.00 0.06 0.04 50 1012.7
20260505195532 71 0 1.7 3.5 0.00 0.06 0.04 49 1012.9
20260505194605 71 299 3.5 6.1 0.00 0.06 0.04 50 1013.0
20260505193532 72 356 2.6 8.7 0.00 0.06 0.04 50 1012.8
20260505192524 72 17 3.5 9.6 0.00 0.06 0.04 50 1013.0
20260505191532 72 327 3.5 7.0 0.00 0.06 0.04 51 1013.1
20260505190524 71 345 2.6 5.2 0.00 0.06 0.04 50 1013.4
20260505185532 70 289 1.7 4.3 0.00 0.06 0.04 53 1013.6
20260505184525 69 295 2.6 6.1 0.00 0.06 0.04 57 1013.8
20260505183549 69 284 3.5 6.1 0.00 0.06 0.04 56 1013.7
20260505182524 70 270 3.5 6.1 0.00 0.06 0.04 54 1013.9
20260505181533 67 41 1.7 3.5 0.00 0.06 0.04 61 1014.0
20260505180525 67 87 0.9 1.7 0.00 0.06 0.04 60 1014.1
20260505175552 68 43 0.9 2.6 0.00 0.06 0.04 60 1014.2
20260505174524 68 27 0.9 2.6 0.00 0.06 0.04 63 1014.3
20260505173533 68 18 0.9 4.3 0.00 0.06 0.04 61 1014.2
20260505172526 67 28 0.9 2.6 0.00 0.06 0.04 62 1014.3
20260505171532 68 2 1.7 3.5 0.00 0.06 0.04 63 1014.3
20260505170524 67 51 0.9 4.3 0.00 0.06 0.04 63 1014.2
20260505165552 67 54 0.0 1.7 0.00 0.06 0.04 64 1014.2
20260505164524 66 135 0.9 1.7 0.00 0.06 0.04 65 1014.2
20260505163532 65 324 0.9 3.5 0.00 0.06 0.04 72 1014.3
20260505162545 65 240 0.9 2.6 0.00 0.06 0.04 71 1014.4
20260505161532 64 259 0.9 3.5 0.00 0.06 0.04 73 1014.4
20260505160524 63 233 0.9 1.7 0.00 0.06 0.04 72 1014.3
20260505152605 62 141 0.9 2.6 0.00 0.06 0.04 84 1014.1
20260505151533 62 133 0.0 1.7 0.00 0.06 0.04 84 1014.1
20260505150524 61 139 0.9 1.7 0.00 0.06 0.04 85 1014.1
20260505140526 60 65 0.0 0.9 0.00 0.06 0.04 91 1013.7
20260505124526 59 0.0 0.0 0.00 0.05 0.02 93 1013.2
20260505123532 59 0.0 0.0 0.00 0.05 0.02 93 1013.1
20260505122524 59 0.0 0.9 0.00 0.05 0.02 93 1012.8
20260505121532 58 215 0.0 1.7 0.00 0.05 0.02 93 1012.9
20260505120525 58 0.0 0.0 0.00 0.05 0.02 93 1012.7
20260505115553 58 26 0.9 1.7 0.00 0.05 0.02 94 1012.6
20260505114525 58 0.0 0.0 0.00 0.05 0.02 94 1012.7
20260505113532 58 41 0.9 1.7 0.00 0.05 0.02 93 1012.6
20260505112524 58 285 0.0 0.9 0.00 0.05 0.02 93 1013.1
20260505111533 58 90 0.0 1.7 0.00 0.05 0.02 93 1012.8
20260505110524 58 30 0.0 1.7 0.00 0.05 0.02 92 1013.1
20260505101532 58 13 0.9 3.5 0.00 0.05 0.02 91 1013.9
20260505100605 58 19 0.9 3.5 0.01 0.05 0.02 93 1014.0
20260505095532 58 24 0.9 2.6 0.01 0.05 0.02 93 1014.2
20260505094545 58 87 0.9 2.6 0.02 0.05 0.02 93 1014.0
20260505093553 58 75 1.7 4.3 0.02 0.05 0.02 92 1014.3
20260505092524 58 105 0.9 3.5 0.02 0.05 0.02 93 1014.8
20260505091532 58 117 1.7 6.1 0.02 0.05 0.02 93 1014.7
20260505090524 58 100 2.6 6.1 0.01 0.04 0.01 93 1014.9
20260505085552 58 84 2.6 6.1 0.01 0.04 0.01 93 1015.3
20260505084524 58 84 2.6 4.3 0.00 0.02 0.00 92 1015.5
20260505083532 58 99 1.7 3.5 0.00 0.02 0.00 92 1016.0
20260505082525 58 98 1.7 3.5 0.00 0.02 0.00 92 1016.2
20260505081532 58 97 1.7 4.3 0.00 0.02 0.00 92 1016.3
20260505080524 59 100 1.7 3.5 0.00 0.02 0.00 92 1016.5
20260505075532 59 90 0.0 1.7 0.00 0.02 0.00 92 1016.8
20260505074544 59 101 0.9 2.6 0.00 0.02 0.00 92 1016.9
20260505073532 59 90 0.9 2.6 0.00 0.02 0.00 92 1017.0
20260505072524 59 91 0.9 1.7 0.00 0.02 0.00 92 1016.7
20260505071552 59 78 0.9 1.7 0.00 0.02 0.00 92 1016.7
20260505070545 59 119 0.9 1.7 0.00 0.02 0.00 92 1016.7
20260505065533 59 93 0.9 1.7 0.00 0.02 0.02 92 1016.5
20260505064545 59 75 0.0 1.7 0.00 0.02 0.02 92 1016.5
20260505063532 59 62 0.9 1.7 0.00 0.02 0.02 91 1016.4
20260505062526 59 48 0.0 1.7 0.00 0.02 0.02 90 1016.5
20260505061532 59 25 2.6 4.3 0.00 0.02 0.02 89 1016.6
20260505060524 59 57 0.9 1.7 0.00 0.02 0.02 88 1016.6
20260505055532 60 37 1.7 2.6 0.00 0.02 0.02 86 1016.4
20260505054700 60 47 0.9 1.7 0.00 0.02 0.02 87 1016.1
20260505053708 60 73 0.9 2.6 0.00 0.02 0.02 87 1016.2
20260505052524 60 103 0.9 1.7 0.00 0.02 0.02 86 1016.5
20260505051532 60 103 0.9 2.6 0.00 0.02 0.02 86 1016.5
20260505050524 60 93 1.7 2.6 0.00 0.02 0.02 86 1016.5
20260505041532 59 131 0.0 1.7 0.00 0.02 0.02 80 1016.3
20260505040606 59 43 0.9 2.6 0.00 0.02 0.02 83 1016.2
20260505035532 59 59 1.7 3.5 0.00 0.02 0.02 82 1016.0
20260505034524 58 60 1.7 6.1 0.00 0.02 0.02 83 1015.7